N2PUI Weather Reports


time (UTC)temp
C
wind
direction
speed
KPH
gust
KPH
rain 1hr
cm
rain 24hr
cm
rain mn
cm
humidity
%
barometer
mb
20260502220257 7 229 1.6 1.6 0.00 0.00 0.00 51 1013.3
20260502215754 7 278 6.4 14.5 0.00 0.00 0.00 51 1013.3
20260502215251 7 259 3.2 4.8 0.00 0.00 0.00 49 1012.9
20260502214748 8 252 4.8 8.0 0.00 0.00 0.00 51 1013.0
20260502214245 7 243 4.8 4.8 0.00 0.00 0.00 50 1013.1
20260502213742 7 239 4.8 8.0 0.00 0.00 0.00 51 1013.3
20260502213240 7 200 0.0 1.6 0.00 0.00 0.00 52 1013.1
20260502212739 7 223 4.8 4.8 0.00 0.00 0.00 51 1013.0
20260502212236 7 238 3.2 3.2 0.00 0.00 0.00 52 1013.1
20260502211732 7 199 0.0 1.6 0.00 0.00 0.00 51 1013.3
20260502211229 7 228 3.2 3.2 0.00 0.00 0.00 50 1013.0
20260502210726 7 199 0.0 1.6 0.00 0.00 0.00 52 1013.0
20260502210223 7 302 4.8 8.0 0.00 0.00 0.00 51 1013.4
20260502205721 7 310 8.0 8.0 0.00 0.00 0.00 50 1013.4
20260502205216 7 323 6.4 8.0 0.00 0.00 0.00 51 1013.3
20260502204714 8 265 6.4 9.7 0.00 0.00 0.00 51 1013.4
20260502204212 7 298 4.8 8.0 0.00 0.00 0.00 51 1013.4
20260502203709 7 233 6.4 9.7 0.00 0.00 0.00 51 1013.0
20260502203206 8 314 3.2 4.8 0.00 0.00 0.00 51 1013.3
20260502202700 7 199 1.6 1.6 0.00 0.00 0.00 50 1013.6
20260502202159 7 171 3.2 3.2 0.00 0.00 0.00 51 1013.6
20260502201656 7 241 6.4 8.0 0.00 0.00 0.00 49 1013.1
20260502201153 7 224 1.6 3.2 0.00 0.00 0.00 48 1013.5
20260502200648 7 315 8.0 9.7 0.00 0.00 0.00 49 1013.7
20260502200145 7 313 4.8 4.8 0.00 0.00 0.00 48 1013.6
20260502195643 8 304 9.7 11.3 0.00 0.00 0.00 48 1013.7
20260502195139 8 293 6.4 8.0 0.00 0.00 0.00 48 1013.7
20260502194636 8 283 3.2 3.2 0.00 0.00 0.00 47 1013.7
20260502194133 8 207 1.6 3.2 0.00 0.00 0.00 49 1013.7
20260502193629 8 258 3.2 3.2 0.00 0.00 0.00 48 1013.9
20260502193127 7 320 8.0 9.7 0.00 0.00 0.00 47 1013.9
20260502192622 8 289 4.8 4.8 0.00 0.00 0.00 48 1013.8
20260502192120 8 309 9.7 12.9 0.00 0.00 0.00 46 1013.7
20260502191616 8 287 8.0 11.3 0.00 0.00 0.00 46 1014.1
20260502191114 8 347 4.8 4.8 0.00 0.00 0.00 46 1013.7
20260502190611 8 261 8.0 9.7 0.00 0.00 0.00 45 1013.6
20260502190109 8 291 6.4 9.7 0.00 0.00 0.00 46 1013.9
20260502185603 8 294 8.0 11.3 0.00 0.00 0.00 45 1013.8
20260502185100 8 215 3.2 3.2 0.00 0.00 0.00 45 1013.9
20260502184556 8 271 3.2 3.2 0.00 0.00 0.00 45 1013.8
20260502184051 8 154 0.0 0.0 0.00 0.00 0.00 46 1013.9
20260502183548 8 114 0.0 0.0 0.00 0.00 0.00 45 1013.7
20260502183044 8 195 1.6 3.2 0.00 0.00 0.00 44 1014.0
20260502182540 8 186 1.6 3.2 0.00 0.00 0.00 46 1014.0
20260502182036 8 210 1.6 3.2 0.00 0.00 0.00 45 1014.0
20260502181534 8 230 4.8 4.8 0.00 0.00 0.00 46 1014.1
20260502181032 8 239 4.8 4.8 0.00 0.00 0.00 45 1014.2
20260502180528 8 234 11.3 12.9 0.00 0.00 0.00 45 1014.0
20260502170442 8 214 3.2 3.2 0.00 0.00 0.00 45 1014.0
20260502163925 10 281 8.0 9.7 0.00 0.00 0.00 40 1014.3
20260502163422 8 218 4.8 4.8 0.00 0.00 0.00 47 1014.2
20260502162920 8 11 9.7 11.3 0.00 0.00 0.00 46 1014.1
20260502162416 8 256 9.7 12.9 0.00 0.00 0.00 44 1014.3
20260502161913 8 212 6.4 9.7 0.00 0.00 0.00 48 1014.1
20260502161409 8 67 8.0 11.3 0.00 0.00 0.00 45 1014.3
20260502160907 9 308 4.8 4.8 0.00 0.00 0.00 46 1014.1
20260502160405 8 239 4.8 9.7 0.00 0.00 0.00 47 1014.4
20260502152340 8 215 8.0 11.3 0.00 0.00 0.00 46 1014.0
20260502151838 7 258 11.3 14.5 0.00 0.00 0.00 46 1014.4
20260502151334 7 233 9.7 12.9 0.00 0.00 0.00 45 1014.2
20260502150832 8 315 8.0 11.3 0.00 0.00 0.00 48 1014.3
20260502150328 8 284 8.0 11.3 0.00 0.00 0.00 48 1014.1
20260502130716 5 347 6.4 9.7 0.00 0.00 0.00 70 1014.8
20260502130214 5 250 6.4 8.0 0.00 0.00 0.00 70 1014.8
20260502123700 5 289 1.6 3.2 0.00 0.00 0.00 71 1014.7
20260502123156 5 241 4.8 8.0 0.00 0.00 0.00 71 1014.4
20260502122653 5 221 3.2 4.8 0.00 0.00 0.00 71 1014.6
20260502122149 5 315 4.8 8.0 0.00 0.00 0.00 71 1014.6
20260502121648 5 334 4.8 8.0 0.00 0.00 0.00 72 1014.6
20260502121145 5 322 8.0 9.7 0.00 0.00 0.00 73 1014.7
20260502120641 5 228 4.8 4.8 0.00 0.00 0.00 76 1014.7
20260502120139 5 109 3.2 4.8 0.00 0.00 0.00 77 1014.5
20260502115636 5 305 4.8 9.7 0.00 0.00 0.00 77 1014.5
20260502115132 5 250 6.4 8.0 0.00 0.00 0.00 77 1014.7
20260502114628 5 247 6.4 9.7 0.00 0.00 0.00 78 1014.5
20260502114126 5 315 11.3 12.9 0.00 0.00 0.00 79 1014.7
20260502113623 5 280 3.2 4.8 0.00 0.00 0.00 80 1014.8
20260502113121 4 306 4.8 8.0 0.00 0.00 0.00 81 1014.6
20260502112619 4 292 3.2 3.2 0.00 0.00 0.00 82 1014.5
20260502112116 3 299 6.4 8.0 0.00 0.00 0.00 83 1014.5
20260502111613 3 202 1.6 1.6 0.00 0.00 0.00 83 1014.5
20260502111111 3 236 3.2 3.2 0.00 0.00 0.00 84 1014.5
20260502110608 3 193 3.2 4.8 0.00 0.00 0.00 85 1014.4
20260502110106 3 211 1.6 3.2 0.00 0.00 0.00 85 1014.5
20260502105603 3 279 6.4 8.0 0.00 0.00 0.00 86 1014.4
20260502105100 3 265 4.8 4.8 0.00 0.00 0.00 86 1014.2
20260502104557 3 182 1.6 1.6 0.00 0.00 0.00 86 1014.0
20260502104054 3 186 1.6 1.6 0.00 0.00 0.00 86 1014.1
20260502103552 3 231 4.8 8.0 0.00 0.00 0.00 87 1014.1
20260502103050 3 312 11.3 12.9 0.00 0.00 0.00 87 1013.9
20260502102546 3 310 6.4 9.7 0.00 0.00 0.00 88 1013.8
20260502102043 3 324 4.8 4.8 0.00 0.00 0.00 89 1014.1
20260502101541 3 273 3.2 3.2 0.00 0.00 0.00 89 1014.0
20260502101039 3 301 3.2 4.8 0.00 0.00 0.00 90 1013.9
20260502100537 3 289 4.8 8.0 0.00 0.00 0.00 90 1013.8
20260502091512 3 144 0.0 1.6 0.00 0.00 0.00 89 1013.6
20260502091009 3 176 0.0 1.6 0.00 0.00 0.00 89 1013.4
20260502090506 4 150 0.0 1.6 0.00 0.00 0.00 89 1013.4
20260502071401 4 182 0.0 0.0 0.00 0.00 0.00 91 1012.8
20260502070859 4 313 4.8 4.8 0.00 0.00 0.00 91 1013.0
20260502070356 4 180 1.6 1.6 0.00 0.00 0.00 91 1012.8
20260502065855 4 300 4.8 4.8 0.00 0.00 0.00 91 1012.8
20260502065353 4 297 6.4 8.0 0.00 0.00 0.00 91 1012.9
20260502064850 4 263 3.2 4.8 0.00 0.00 0.00 91 1012.9
20260502064348 4 254 3.2 3.2 0.00 0.00 0.00 92 1012.9
20260502063845 4 232 3.2 3.2 0.00 0.00 0.00 92 1012.9
20260502063343 4 317 4.8 4.8 0.00 0.00 0.00 92 1012.7
20260502062840 4 194 1.6 1.6 0.00 0.00 0.00 92 1013.0
20260502062337 4 213 4.8 4.8 0.00 0.00 0.00 92 1012.9
20260502061836 4 147 1.6 1.6 0.00 0.00 0.00 92 1012.9
20260502061333 4 286 1.6 3.2 0.00 0.00 0.00 92 1012.9
20260502060829 4 26 3.2 3.2 0.00 0.00 0.00 92 1012.9
20260502060324 4 281 4.8 4.8 0.00 0.00 0.00 92 1013.3
20260502055822 4 228 4.8 8.0 0.00 0.00 0.00 92 1012.9
20260502055320 4 307 6.4 8.0 0.00 0.00 0.00 92 1012.7
20260502054819 4 318 4.8 11.3 0.00 0.00 0.00 92 1012.6
20260502054316 4 313 9.7 12.9 0.00 0.00 0.00 92 1012.8
20260502053814 4 195 1.6 1.6 0.00 0.00 0.00 93 1012.8
20260502053311 5 303 6.4 11.3 0.00 0.00 0.00 93 1012.7
20260502052809 5 181 1.6 1.6 0.00 0.00 0.00 93 1012.8
20260502052306 5 314 9.7 12.9 0.00 0.00 0.00 93 1012.8
20260502051804 5 159 0.0 1.6 0.00 0.00 0.00 93 1012.8
20260502051303 5 90 3.2 3.2 0.00 0.00 0.00 93 1012.8
20260502050758 5 221 4.8 4.8 0.00 0.00 0.00 93 1013.0
20260502050254 5 205 1.6 1.6 0.00 0.00 0.00 93 1012.9
20260502045752 5 287 1.6 3.2 0.00 0.00 0.00 93 1013.1
20260502045248 5 142 0.0 0.0 0.00 0.00 0.00 93 1013.0
20260502044745 5 284 1.6 3.2 0.00 0.00 0.00 93 1013.1
20260502044241 5 216 4.8 8.0 0.00 0.00 0.00 93 1012.8
20260502043739 5 282 8.0 9.7 0.00 0.00 0.00 93 1013.0
20260502043237 5 191 1.6 1.6 0.00 0.00 0.00 93 1012.8
20260502042736 5 222 3.2 4.8 0.00 0.00 0.00 93 1012.8
20260502042233 5 338 6.4 8.0 0.00 0.00 0.00 93 1012.8
20260502041731 5 289 3.2 4.8 0.00 0.00 0.00 93 1012.9
20260502041228 5 231 3.2 4.8 0.00 0.00 0.00 93 1012.9
20260502040725 5 259 3.2 3.2 0.00 0.00 0.00 93 1012.6
20260502040222 6 319 4.8 8.0 0.00 0.00 0.00 93 1012.7
20260502035718 6 182 0.0 0.0 0.00 0.30 0.30 93 1012.6
20260502035215 5 177 0.0 0.0 0.00 0.30 0.30 93 1012.4
20260502034712 5 160 0.0 0.0 0.00 0.30 0.30 93 1012.3
20260502034211 5 175 0.0 0.0 0.00 0.30 0.30 93 1012.6
20260502033708 5 181 0.0 0.0 0.00 0.30 0.30 93 1012.6
20260502033206 5 173 0.0 0.0 0.00 0.30 0.30 93 1012.4
20260502032702 5 181 0.0 1.6 0.00 0.30 0.30 93 1012.4
20260502032158 5 183 0.0 0.0 0.00 0.30 0.30 93 1012.5
20260502031656 5 182 0.0 0.0 0.00 0.30 0.30 93 1012.4
20260502031154 5 193 1.6 1.6 0.13 0.30 0.30 93 1012.6
20260502030652 6 204 1.6 3.2 0.13 0.30 0.30 93 1012.6
20260502030150 6 194 3.2 3.2 0.00 0.28 0.28 93 1012.7
20260502025647 6 196 1.6 1.6 0.00 0.28 0.28 93 1012.6
20260502025145 6 186 1.6 1.6 0.00 0.28 0.28 93 1012.6
20260502024642 6 167 0.0 0.0 0.00 0.28 0.28 93 1012.6
20260502024140 6 183 0.0 0.0 0.00 0.28 0.28 92 1012.8
20260502023638 6 195 1.6 1.6 0.00 0.28 0.28 92 1012.7
20260502023135 6 183 0.0 0.0 0.00 0.28 0.28 92 1012.7
20260502022632 6 181 0.0 0.0 0.18 0.28 0.28 92 1012.7
20260502022129 6 191 1.6 3.2 0.30 0.28 0.28 92 1012.7
20260502021626 6 184 1.6 1.6 0.13 0.25 0.25 92 1012.9
20260502021123 6 182 0.0 0.0 0.00 0.23 0.23 92 1012.5
20260502020621 6 183 0.0 0.0 0.00 0.23 0.23 92 1012.8
20260502020117 6 183 0.0 0.0 0.00 0.23 0.23 92 1012.7
20260502015615 6 179 0.0 0.0 0.00 0.23 0.23 91 1012.6
20260502015112 6 168 0.0 0.0 0.00 0.23 0.23 91 1012.6
20260502014609 6 167 1.6 1.6 0.00 0.23 0.23 91 1012.5
20260502014106 6 171 0.0 1.6 0.18 0.23 0.23 91 1012.6
20260502013601 6 176 0.0 0.0 0.00 0.20 0.20 91 1012.6
20260502013057 6 174 0.0 0.0 0.00 0.20 0.20 91 1012.6
20260502012555 6 176 0.0 0.0 0.00 0.20 0.20 91 1012.6
20260502012053 6 175 0.0 0.0 0.18 0.20 0.20 91 1012.5
20260502011549 6 171 0.0 0.0 0.18 0.20 0.20 90 1012.5
20260502011046 6 165 1.6 1.6 0.00 0.18 0.18 90 1012.6
20260502010543 6 187 0.0 0.0 0.00 0.18 0.18 90 1012.3
20260502010039 6 187 0.0 0.0 0.13 0.18 0.18 90 1012.5
20260502005537 6 187 0.0 0.0 0.00 0.15 0.15 89 1012.4
20260502005035 6 187 0.0 0.0 0.18 0.15 0.15 89 1012.4
20260502004530 6 187 0.0 0.0 0.18 0.15 0.15 89 1012.3
20260502004027 6 187 0.0 0.0 0.00 0.13 0.13 89 1012.3
20260502003525 6 187 0.0 0.0 0.13 0.13 0.13 88 1012.3
20260502003022 6 187 0.0 0.0 0.13 0.13 0.13 88 1012.3
20260502002518 6 187 0.0 0.0 0.00 0.10 0.10 88 1012.3
20260502002016 6 187 0.0 0.0 0.00 0.10 0.10 87 1012.1
20260502001513 6 187 0.0 0.0 0.18 0.10 0.10 87 1012.2
20260502001010 6 188 0.0 0.0 0.18 0.10 0.10 87 1012.3
20260502000509 6 187 0.0 0.0 0.00 0.08 0.08 86 1012.4
20260502000005 7 187 0.0 0.0 0.00 0.08 0.08 85 1012.1
20260501235501 7 187 0.0 1.6 0.13 0.08 0.08 85 1012.1
20260501234956 7 189 0.0 0.0 0.13 0.08 0.08 84 1012.3
20260501234453 7 187 0.0 1.6 0.00 0.05 0.05 83 1012.0
20260501233951 7 216 4.8 8.0 0.18 0.05 0.05 81 1012.1
20260501233449 7 194 1.6 1.6 0.18 0.05 0.05 80 1012.1
20260501232944 7 184 0.0 1.6 0.00 0.03 0.03 78 1012.2
20260501232442 8 209 3.2 3.2 0.13 0.03 0.03 76 1012.2
20260501231939 8 192 1.6 1.6 0.13 0.03 0.03 75 1012.1
20260501231437 8 182 0.0 0.0 0.00 0.00 0.00 74 1012.0
20260501230935 8 190 1.6 1.6 0.00 0.00 0.00 73 1012.0
20260501230434 8 211 8.0 11.3 0.00 0.00 0.00 72 1012.0
20260501225931 8 230 3.2 4.8 0.00 0.00 0.00 71 1011.9
20260501225428 8 193 1.6 1.6 0.00 0.00 0.00 69 1011.8
20260501224924 9 200 1.6 1.6 0.00 0.00 0.00 67 1011.7
20260501224421 9 207 4.8 4.8 0.00 0.00 0.00 65 1011.7
20260501223918 10 222 4.8 4.8 0.00 0.00 0.00 65 1011.6
20260501223414 10 145 1.6 1.6 0.00 0.00 0.00 63 1011.4
20260501222910 10 184 0.0 1.6 0.00 0.00 0.00 64 1011.5
20260501222408 10 203 1.6 1.6 0.00 0.00 0.00 63 1011.6
20260501221904 10 198 3.2 3.2 0.00 0.00 0.00 60 1011.4
20260501221401 10 216 1.6 3.2 0.00 0.00 0.00 59 1011.5
20260501220859 10 199 1.6 3.2 0.00 0.00 0.00 58 1011.6